Time,TemperatureF,DewpointF,PressureIn,WindDirection,WindDirectionDegrees,WindSpeedMPH,WindSpeedGustMPH,Humidity,HourlyPrecipIn,Conditions,Clouds,dailyrainin,SolarRadiationWatts/m^2,SoftwareType,DateUTC
2013-04-20 00:02:00,40.5,51.6,29.85,WNW,290,8.0,15.0,45,0.00,,,0.44,0.0,meteohub,2013-04-20 04:02:00,
2013-04-20 00:07:00,40.3,51.6,29.85,WNW,302,14.0,15.0,45,0.00,,,0.00,0.0,meteohub,2013-04-20 04:07:00,
2013-04-20 00:12:00,40.3,51.6,29.85,WNW,295,1.0,15.0,45,0.00,,,0.00,0.0,meteohub,2013-04-20 04:12:00,
2013-04-20 00:17:00,40.1,51.6,29.85,NW,308,12.0,14.0,45,0.00,,,0.00,0.0,meteohub,2013-04-20 04:17:00,
2013-04-20 00:22:00,39.9,50.9,29.85,NNW,330,5.0,17.0,44,0.00,,,0.00,0.0,meteohub,2013-04-20 04:22:00,
2013-04-20 00:27:00,39.9,50.9,29.86,WNW,294,5.0,17.0,44,0.00,,,0.00,0.0,meteohub,2013-04-20 04:27:00,
2013-04-20 00:32:00,39.9,50.9,29.86,NNW,347,8.0,17.0,44,0.00,,,0.00,0.0,meteohub,2013-04-20 04:32:00,
2013-04-20 00:37:00,39.7,50.9,29.86,North,5,4.0,14.0,44,0.00,,,0.00,0.0,meteohub,2013-04-20 04:37:00,
2013-04-20 00:42:00,39.7,50.9,29.86,NW,305,6.0,15.0,44,0.00,,,0.00,0.0,meteohub,2013-04-20 04:42:00,
2013-04-20 00:47:00,39.6,50.9,29.86,NW,306,3.0,15.0,44,0.00,,,0.00,0.0,meteohub,2013-04-20 04:47:00,
2013-04-20 00:52:00,39.6,50.9,29.86,WNW,286,4.0,15.0,44,0.00,,,0.00,0.0,meteohub,2013-04-20 04:52:00,
2013-04-20 00:57:00,39.4,50.9,29.86,WNW,302,4.0,13.0,44,0.00,,,0.00,0.0,meteohub,2013-04-20 04:57:00,
2013-04-20 01:02:00,39.2,50.9,29.86,WNW,290,7.0,13.0,44,0.00,,,0.00,0.0,meteohub,2013-04-20 05:02:00,
2013-04-20 01:07:00,39.0,50.9,29.86,NW,319,8.0,16.0,44,0.00,,,0.00,0.0,meteohub,2013-04-20 05:07:00,
2013-04-20 01:12:00,39.0,50.9,29.86,West,281,7.0,16.0,44,0.00,,,0.00,0.0,meteohub,2013-04-20 05:12:00,
2013-04-20 01:17:00,38.8,50.9,29.87,NNE,15,1.0,16.0,44,0.00,,,0.00,0.0,meteohub,2013-04-20 05:17:00,
2013-04-20 01:22:00,38.7,50.9,29.87,NNW,338,3.0,15.0,44,0.00,,,0.00,0.0,meteohub,2013-04-20 05:22:00,
2013-04-20 01:27:00,38.7,50.9,29.87,SW,235,9.0,15.0,44,0.00,,,0.00,0.0,meteohub,2013-04-20 05:27:00,
2013-04-20 01:32:00,38.7,50.9,29.87,NW,319,7.0,17.0,44,0.00,,,0.00,0.0,meteohub,2013-04-20 05:32:00,
2013-04-20 01:37:00,38.7,50.9,29.88,NW,313,7.0,17.0,44,0.00,,,0.00,0.0,meteohub,2013-04-20 05:37:00,
2013-04-20 01:42:00,38.5,50.9,29.88,NNW,344,7.0,17.0,44,0.00,,,0.00,0.0,meteohub,2013-04-20 05:42:00,
2013-04-20 01:47:00,38.5,50.4,29.88,WSW,258,4.0,15.0,43,0.00,,,0.00,0.0,meteohub,2013-04-20 05:47:00,
2013-04-20 01:52:00,38.3,50.2,29.88,NNW,344,3.0,15.0,43,0.00,,,0.00,0.0,meteohub,2013-04-20 05:52:00,
2013-04-20 01:57:00,38.1,50.2,29.88,North,355,5.0,15.0,43,0.00,,,0.00,0.0,meteohub,2013-04-20 05:57:00,
2013-04-20 02:02:00,38.1,50.2,29.88,WNW,287,5.0,15.0,43,0.00,,,0.00,0.0,meteohub,2013-04-20 06:02:00,
2013-04-20 02:07:00,37.9,50.2,29.88,West,275,4.0,14.0,43,0.00,,,0.00,0.0,meteohub,2013-04-20 06:07:00,
2013-04-20 02:12:00,37.9,50.2,29.88,NW,308,5.0,14.0,43,0.00,,,0.00,0.0,meteohub,2013-04-20 06:12:00,
2013-04-20 02:17:00,37.9,50.2,29.89,NNW,329,1.0,14.0,43,0.00,,,0.00,0.0,meteohub,2013-04-20 06:17:00,
2013-04-20 02:22:00,37.8,50.2,29.89,NW,307,9.0,13.0,43,0.00,,,0.00,0.0,meteohub,2013-04-20 06:22:00,
2013-04-20 02:27:00,37.8,50.2,29.89,North,355,9.0,16.0,43,0.00,,,0.00,0.0,meteohub,2013-04-20 06:27:00,
2013-04-20 02:32:00,37.8,50.2,29.89,North,350,7.0,16.0,43,0.00,,,0.00,0.0,meteohub,2013-04-20 06:32:00,
2013-04-20 02:37:00,37.8,50.2,29.89,North,350,3.0,16.0,43,0.00,,,0.00,0.0,meteohub,2013-04-20 06:37:00,
2013-04-20 02:42:00,37.6,50.2,29.89,North,0,8.0,16.0,43,0.00,,,0.00,0.0,meteohub,2013-04-20 06:42:00,
2013-04-20 02:47:00,37.6,50.2,29.89,WNW,290,4.0,13.0,43,0.00,,,0.00,0.0,meteohub,2013-04-20 06:47:00,
2013-04-20 02:52:00,37.6,50.2,29.89,NNW,347,3.0,13.0,43,0.00,,,0.00,0.0,meteohub,2013-04-20 06:52:00,
2013-04-20 02:57:00,37.2,50.2,29.90,NW,317,7.0,13.0,43,0.00,,,0.00,0.0,meteohub,2013-04-20 06:57:00,
2013-04-20 03:02:00,37.2,50.2,29.89,NNW,333,4.0,12.0,43,0.00,,,0.00,0.0,meteohub,2013-04-20 07:02:00,
2013-04-20 03:07:00,37.0,50.2,29.90,NW,313,4.0,12.0,43,0.00,,,0.00,0.0,meteohub,2013-04-20 07:07:00,
2013-04-20 03:12:00,36.9,49.6,29.90,North,355,4.0,12.0,42,0.00,,,0.00,0.0,meteohub,2013-04-20 07:12:00,
2013-04-20 03:17:00,36.9,49.6,29.90,WNW,287,4.0,8.0,42,0.00,,,0.00,0.0,meteohub,2013-04-20 07:17:00,
2013-04-20 03:22:00,36.9,49.6,29.90,North,0,11.0,11.0,42,0.00,,,0.00,0.0,meteohub,2013-04-20 07:22:00,
2013-04-20 03:27:00,36.9,49.6,29.91,WNW,297,4.0,14.0,42,0.00,,,0.00,0.0,meteohub,2013-04-20 07:27:00,
2013-04-20 03:32:00,37.0,49.6,29.91,WNW,284,8.0,16.0,42,0.00,,,0.00,0.0,meteohub,2013-04-20 07:32:00,
2013-04-20 03:37:00,37.0,49.6,29.91,WNW,300,7.0,18.0,42,0.00,,,0.00,0.0,meteohub,2013-04-20 07:37:00,
2013-04-20 03:42:00,36.9,49.6,29.92,NW,316,6.0,21.0,42,0.00,,,0.00,0.0,meteohub,2013-04-20 07:42:00,
2013-04-20 03:47:00,36.9,49.6,29.92,NW,320,4.0,21.0,42,0.00,,,0.00,0.0,meteohub,2013-04-20 07:47:00,
2013-04-20 03:52:00,36.7,49.6,29.92,WNW,297,8.0,14.0,42,0.00,,,0.00,0.0,meteohub,2013-04-20 07:52:00,
2013-04-20 03:57:00,36.7,49.6,29.92,West,279,3.0,15.0,42,0.00,,,0.00,0.0,meteohub,2013-04-20 07:57:00,
2013-04-20 04:02:00,36.7,49.6,29.93,WNW,296,7.0,19.0,42,0.00,,,0.00,0.0,meteohub,2013-04-20 08:02:00,
2013-04-20 04:07:00,36.7,49.6,29.93,NW,319,8.0,19.0,42,0.00,,,0.00,0.0,meteohub,2013-04-20 08:07:00,
2013-04-20 04:12:00,36.7,49.6,29.93,NW,313,7.0,18.0,42,0.00,,,0.00,0.0,meteohub,2013-04-20 08:12:00,
2013-04-20 04:17:00,36.5,49.6,29.93,North,5,7.0,18.0,42,0.00,,,0.00,0.0,meteohub,2013-04-20 08:17:00,
2013-04-20 04:22:00,36.3,49.6,29.94,NNW,348,4.0,14.0,42,0.00,,,0.00,0.0,meteohub,2013-04-20 08:22:00,
2013-04-20 04:27:00,36.1,49.5,29.94,WNW,298,7.0,14.0,42,0.00,,,0.00,0.0,meteohub,2013-04-20 08:27:00,
2013-04-20 04:32:00,36.1,49.5,29.94,WNW,292,1.0,10.0,42,0.00,,,0.00,0.0,meteohub,2013-04-20 08:32:00,
2013-04-20 04:37:00,36.0,49.5,29.94,WNW,303,7.0,10.0,42,0.00,,,0.00,0.0,meteohub,2013-04-20 08:37:00,
2013-04-20 04:42:00,35.8,49.5,29.95,North,0,2.0,10.0,42,0.00,,,0.00,0.0,meteohub,2013-04-20 08:42:00,
2013-04-20 04:47:00,35.6,49.5,29.95,WNW,302,3.0,11.0,42,0.00,,,0.00,0.0,meteohub,2013-04-20 08:47:00,
2013-04-20 04:52:00,35.2,48.7,29.96,WNW,284,6.0,11.0,41,0.00,,,0.00,0.0,meteohub,2013-04-20 08:52:00,
2013-04-20 04:57:00,35.2,48.7,29.96,NNW,348,5.0,11.0,41,0.00,,,0.00,0.0,meteohub,2013-04-20 08:57:00,
2013-04-20 05:02:00,35.1,48.7,29.96,NW,309,4.0,11.0,41,0.00,,,0.00,0.0,meteohub,2013-04-20 09:02:00,
2013-04-20 05:07:00,34.9,48.7,29.96,North,349,4.0,11.0,41,0.00,,,0.00,0.0,meteohub,2013-04-20 09:07:00,
2013-04-20 05:12:00,34.9,48.7,29.96,NW,313,3.0,8.0,41,0.00,,,0.00,0.0,meteohub,2013-04-20 09:12:00,
2013-04-20 05:17:00,34.5,48.7,29.96,NE,40,2.0,8.0,41,0.00,,,0.00,0.0,meteohub,2013-04-20 09:17:00,
2013-04-20 05:22:00,34.3,48.7,29.97,NNW,337,3.0,8.0,41,0.00,,,0.00,0.0,meteohub,2013-04-20 09:22:00,
2013-04-20 05:27:00,34.2,48.7,29.97,NNW,333,6.0,6.0,41,0.00,,,0.00,0.0,meteohub,2013-04-20 09:27:00,
2013-04-20 05:32:00,34.0,48.7,29.97,WNW,296,3.0,6.0,41,0.00,,,0.00,0.0,meteohub,2013-04-20 09:32:00,
2013-04-20 05:37:00,33.8,48.7,29.97,WNW,299,4.0,6.0,41,0.00,,,0.00,0.0,meteohub,2013-04-20 09:37:00,
2013-04-20 05:42:00,33.8,48.7,29.98,WNW,292,0.0,9.0,41,0.00,,,0.00,0.0,meteohub,2013-04-20 09:42:00,
2013-04-20 05:47:00,33.6,48.7,29.98,WNW,301,2.0,9.0,41,0.00,,,0.00,0.0,meteohub,2013-04-20 09:47:00,
2013-04-20 05:52:00,33.6,48.7,29.98,WNW,298,1.0,9.0,41,0.00,,,0.00,0.0,meteohub,2013-04-20 09:52:00,
2013-04-20 05:57:00,33.3,48.7,29.98,NW,321,0.0,7.0,41,0.00,,,0.00,0.0,meteohub,2013-04-20 09:57:00,
2013-04-20 06:02:00,33.1,48.7,29.98,WNW,290,0.0,7.0,41,0.00,,,0.00,0.0,meteohub,2013-04-20 10:02:00,
2013-04-20 06:07:00,32.5,48.7,29.98,NW,306,0.0,5.0,41,0.00,,,0.00,0.0,meteohub,2013-04-20 10:07:00,
2013-04-20 06:12:00,32.4,48.7,29.99,WNW,296,1.0,5.0,41,0.00,,,0.00,0.0,meteohub,2013-04-20 10:12:00,
2013-04-20 06:17:00,32.2,48.7,29.99,WNW,296,0.0,3.0,41,0.00,,,0.00,0.0,meteohub,2013-04-20 10:17:00,
2013-04-20 06:22:00,31.6,48.7,29.99,NW,308,0.0,3.0,41,0.00,,,0.00,0.0,meteohub,2013-04-20 10:22:00,
2013-04-20 06:27:00,31.8,48.7,29.99,NW,315,0.0,2.0,41,0.00,,,0.00,0.0,meteohub,2013-04-20 10:27:00,
2013-04-20 06:32:00,32.0,48.7,30.00,NW,315,0.0,2.0,41,0.00,,,0.00,0.0,meteohub,2013-04-20 10:32:00,
2013-04-20 06:37:00,31.8,48.7,30.00,NW,315,0.0,2.0,41,0.00,,,0.00,0.0,meteohub,2013-04-20 10:37:00,
2013-04-20 06:42:00,31.5,48.0,30.00,NW,315,0.0,2.0,40,0.00,,,0.00,0.0,meteohub,2013-04-20 10:42:00,
2013-04-20 06:47:00,31.5,48.0,30.00,NW,315,0.0,0.0,40,0.00,,,0.00,0.0,meteohub,2013-04-20 10:47:00,
2013-04-20 06:52:00,31.5,48.0,30.00,NW,317,0.0,0.0,40,0.00,,,0.00,0.0,meteohub,2013-04-20 10:52:00,
2013-04-20 06:57:00,31.5,48.0,30.00,NNW,336,0.0,3.0,40,0.00,,,0.00,7.0,meteohub,2013-04-20 10:57:00,
2013-04-20 07:02:00,31.6,48.0,30.01,WNW,302,1.0,4.0,40,0.00,,,0.00,11.0,meteohub,2013-04-20 11:02:00,
2013-04-20 07:07:00,31.6,48.0,30.01,NNW,338,1.0,4.0,40,0.00,,,0.00,12.0,meteohub,2013-04-20 11:07:00,
2013-04-20 07:12:00,31.8,48.0,30.01,West,264,0.0,4.0,40,0.00,,,0.00,16.0,meteohub,2013-04-20 11:12:00,
2013-04-20 07:17:00,31.8,48.0,30.02,West,264,0.0,3.0,40,0.00,,,0.00,19.0,meteohub,2013-04-20 11:17:00,
2013-04-20 07:22:00,31.6,48.0,30.02,NNW,339,0.0,3.0,40,0.00,,,0.00,21.0,meteohub,2013-04-20 11:22:00,
2013-04-20 07:27:00,31.6,48.0,30.03,NNW,339,0.0,3.0,40,0.00,,,0.00,33.0,meteohub,2013-04-20 11:27:00,
2013-04-20 07:32:00,32.0,48.0,30.03,NNW,333,0.0,3.0,40,0.00,,,0.00,47.0,meteohub,2013-04-20 11:32:00,
2013-04-20 07:37:00,32.9,48.0,30.03,NW,312,0.0,3.0,40,0.00,,,0.00,60.0,meteohub,2013-04-20 11:37:00,
2013-04-20 07:42:00,33.1,48.0,30.03,North,350,1.0,3.0,40,0.00,,,0.00,76.0,meteohub,2013-04-20 11:42:00,
2013-04-20 07:47:00,33.6,48.0,30.04,North,349,2.0,3.0,40,0.00,,,0.00,93.0,meteohub,2013-04-20 11:47:00,
2013-04-20 07:52:00,34.2,48.0,30.04,West,275,0.0,3.0,40,0.00,,,0.00,113.0,meteohub,2013-04-20 11:52:00,
2013-04-20 07:57:00,34.3,48.0,30.04,NW,325,2.0,3.0,40,0.00,,,0.00,132.0,meteohub,2013-04-20 11:57:00,
2013-04-20 08:02:00,34.7,48.0,30.04,WNW,286,2.0,5.0,40,0.00,,,0.00,153.0,meteohub,2013-04-20 12:02:00,
2013-04-20 08:07:00,35.1,48.0,30.04,WNW,286,0.0,5.0,40,0.00,,,0.00,174.0,meteohub,2013-04-20 12:07:00,
2013-04-20 08:12:00,35.2,48.0,30.05,WNW,293,1.0,3.0,40,0.00,,,0.00,192.0,meteohub,2013-04-20 12:12:00,
2013-04-20 08:17:00,35.8,48.0,30.05,NNW,334,3.0,4.0,40,0.00,,,0.00,213.0,meteohub,2013-04-20 12:17:00,
2013-04-20 08:22:00,36.1,48.0,30.05,NNW,329,3.0,4.0,40,0.00,,,0.00,234.0,meteohub,2013-04-20 12:22:00,
2013-04-20 08:27:00,36.5,48.0,30.05,WNW,284,0.0,6.0,40,0.00,,,0.00,253.0,meteohub,2013-04-20 12:27:00,
2013-04-20 08:32:00,37.0,48.0,30.06,WNW,289,2.0,8.0,40,0.00,,,0.00,272.0,meteohub,2013-04-20 12:32:00,
2013-04-20 08:37:00,37.0,48.0,30.06,North,355,4.0,9.0,40,0.00,,,0.00,290.0,meteohub,2013-04-20 12:37:00,
2013-04-20 08:42:00,37.4,48.0,30.06,North,355,5.0,9.0,40,0.00,,,0.00,309.0,meteohub,2013-04-20 12:42:00,
2013-04-20 08:47:00,37.8,48.0,30.06,West,263,4.0,9.0,40,0.00,,,0.00,325.0,meteohub,2013-04-20 12:47:00,
2013-04-20 08:52:00,38.1,48.0,30.06,NNW,331,4.0,8.0,40,0.00,,,0.00,343.0,meteohub,2013-04-20 12:52:00,
2013-04-20 08:57:00,38.8,48.0,30.06,West,265,3.0,8.0,40,0.00,,,0.00,360.0,meteohub,2013-04-20 12:57:00,
2013-04-20 09:02:00,39.0,48.0,30.06,NNW,347,6.0,10.0,40,0.00,,,0.00,380.0,meteohub,2013-04-20 13:02:00,
2013-04-20 09:07:00,39.2,48.0,30.06,WNW,300,2.0,10.0,40,0.00,,,0.00,399.0,meteohub,2013-04-20 13:07:00,
2013-04-20 09:12:00,39.4,48.0,30.07,NW,325,6.0,10.0,40,0.00,,,0.00,422.0,meteohub,2013-04-20 13:12:00,
2013-04-20 09:17:00,39.6,48.0,30.07,West,279,7.0,10.0,40,0.00,,,0.00,439.0,meteohub,2013-04-20 13:17:00,
2013-04-20 09:22:00,39.6,48.0,30.07,WNW,302,8.0,8.0,40,0.00,,,0.00,454.0,meteohub,2013-04-20 13:22:00,
2013-04-20 09:27:00,39.9,48.0,30.07,WNW,299,3.0,8.0,40,0.00,,,0.00,471.0,meteohub,2013-04-20 13:27:00,
2013-04-20 09:32:00,40.1,48.0,30.07,WNW,296,10.0,10.0,40,0.00,,,0.00,490.0,meteohub,2013-04-20 13:32:00,
2013-04-20 09:37:00,40.1,48.0,30.08,NW,323,2.0,13.0,40,0.00,,,0.00,504.0,meteohub,2013-04-20 13:37:00,
2013-04-20 09:42:00,40.6,48.2,30.08,NW,308,6.0,13.0,40,0.00,,,0.00,526.0,meteohub,2013-04-20 13:42:00,
2013-04-20 09:47:00,40.6,48.2,30.08,NW,324,8.0,16.0,40,0.00,,,0.00,543.0,meteohub,2013-04-20 13:47:00,
2013-04-20 09:52:00,40.8,47.7,30.08,NNW,334,5.0,16.0,39,0.00,,,0.00,559.0,meteohub,2013-04-20 13:52:00,
2013-04-20 09:57:00,41.0,47.7,30.08,SW,232,1.0,16.0,39,0.00,,,0.00,578.0,meteohub,2013-04-20 13:57:00,
2013-04-20 10:02:00,41.4,47.7,30.08,NW,324,5.0,12.0,39,0.00,,,0.00,592.0,meteohub,2013-04-20 14:02:00,
2013-04-20 10:07:00,41.5,47.7,30.09,NW,321,3.0,12.0,39,0.00,,,0.00,610.0,meteohub,2013-04-20 14:07:00,
2013-04-20 10:12:00,41.5,47.7,30.09,ENE,59,3.0,12.0,39,0.00,,,0.00,626.0,meteohub,2013-04-20 14:12:00,
2013-04-20 10:17:00,41.7,47.7,30.09,WNW,298,7.0,13.0,39,0.00,,,0.00,643.0,meteohub,2013-04-20 14:17:00,
2013-04-20 10:22:00,42.3,47.7,30.09,North,0,6.0,13.0,39,0.00,,,0.00,657.0,meteohub,2013-04-20 14:22:00,
2013-04-20 10:27:00,42.4,47.7,30.09,North,0,5.0,12.0,39,0.00,,,0.00,668.0,meteohub,2013-04-20 14:27:00,
2013-04-20 10:32:00,42.8,47.7,30.09,West,281,6.0,12.0,39,0.00,,,0.00,686.0,meteohub,2013-04-20 14:32:00,
2013-04-20 10:37:00,43.0,47.5,30.09,West,277,11.0,11.0,39,0.00,,,0.00,703.0,meteohub,2013-04-20 14:37:00,
2013-04-20 10:42:00,43.2,47.5,30.10,WNW,293,6.0,13.0,39,0.00,,,0.00,717.0,meteohub,2013-04-20 14:42:00,
2013-04-20 10:47:00,43.2,47.5,30.10,West,260,5.0,13.0,39,0.00,,,0.00,733.0,meteohub,2013-04-20 14:47:00,
2013-04-20 10:52:00,43.3,47.5,30.09,NW,317,4.0,13.0,39,0.00,,,0.00,747.0,meteohub,2013-04-20 14:52:00,
2013-04-20 10:57:00,43.7,47.5,30.10,West,280,5.0,11.0,39,0.00,,,0.00,763.0,meteohub,2013-04-20 14:57:00,
2013-04-20 11:02:00,43.9,47.5,30.10,NNW,328,5.0,13.0,39,0.00,,,0.00,772.0,meteohub,2013-04-20 15:02:00,
2013-04-20 11:07:00,44.8,47.5,30.10,NW,310,1.0,13.0,39,0.00,,,0.00,784.0,meteohub,2013-04-20 15:07:00,
2013-04-20 11:12:00,44.8,47.5,30.10,SSW,205,5.0,17.0,39,0.00,,,0.00,798.0,meteohub,2013-04-20 15:12:00,
2013-04-20 11:17:00,44.8,47.7,30.10,NNW,330,2.0,17.0,39,0.00,,,0.00,810.0,meteohub,2013-04-20 15:17:00,
2013-04-20 11:22:00,45.9,46.8,30.10,West,278,2.0,17.0,38,0.00,,,0.00,819.0,meteohub,2013-04-20 15:22:00,
2013-04-20 11:27:00,45.5,47.5,30.10,NNW,336,6.0,11.0,39,0.00,,,0.00,835.0,meteohub,2013-04-20 15:27:00,
2013-04-20 11:32:00,45.1,47.3,30.10,NNW,333,1.0,12.0,39,0.00,,,0.00,846.0,meteohub,2013-04-20 15:32:00,
2013-04-20 11:37:00,47.1,47.3,30.10,East,86,3.0,12.0,39,0.00,,,0.00,854.0,meteohub,2013-04-20 15:37:00,
2013-04-20 11:42:00,46.8,47.3,30.11,West,275,4.0,12.0,39,0.00,,,0.00,865.0,meteohub,2013-04-20 15:42:00,
2013-04-20 11:47:00,46.8,47.5,30.11,WNW,296,14.0,14.0,39,0.00,,,0.00,877.0,meteohub,2013-04-20 15:47:00,
2013-04-20 11:52:00,46.0,47.5,30.10,NW,309,3.0,14.0,39,0.00,,,0.00,886.0,meteohub,2013-04-20 15:52:00,
2013-04-20 11:57:00,46.0,47.5,30.10,WSW,244,4.0,14.0,39,0.00,,,0.00,893.0,meteohub,2013-04-20 15:57:00,
2013-04-20 12:02:00,46.4,47.5,30.10,NW,319,4.0,14.0,39,0.00,,,0.00,902.0,meteohub,2013-04-20 16:02:00,
2013-04-20 12:07:00,47.5,47.5,30.10,West,281,8.0,14.0,39,0.00,,,0.00,912.0,meteohub,2013-04-20 16:07:00,
2013-04-20 12:12:00,47.8,46.8,30.11,WSW,257,5.0,14.0,38,0.00,,,0.00,919.0,meteohub,2013-04-20 16:12:00,
2013-04-20 12:17:00,47.7,47.3,30.11,NNW,332,6.0,13.0,39,0.00,,,0.00,928.0,meteohub,2013-04-20 16:17:00,
2013-04-20 12:22:00,47.7,47.3,30.11,NE,51,7.0,12.0,39,0.00,,,0.00,935.0,meteohub,2013-04-20 16:22:00,
2013-04-20 12:27:00,48.6,47.3,30.11,WSW,256,7.0,13.0,39,0.00,,,0.00,939.0,meteohub,2013-04-20 16:27:00,
2013-04-20 12:32:00,48.6,47.3,30.10,WSW,240,12.0,13.0,39,0.00,,,0.00,947.0,meteohub,2013-04-20 16:32:00,
2013-04-20 12:37:00,48.0,47.3,30.11,West,274,4.0,16.0,39,0.00,,,0.00,954.0,meteohub,2013-04-20 16:37:00,
2013-04-20 12:42:00,48.9,47.5,30.11,North,11,4.0,16.0,39,0.00,,,0.00,963.0,meteohub,2013-04-20 16:42:00,
2013-04-20 12:47:00,49.8,47.5,30.10,NNW,344,4.0,16.0,39,0.00,,,0.00,969.0,meteohub,2013-04-20 16:47:00,
2013-04-20 12:52:00,50.0,47.5,30.10,NW,310,10.0,12.0,39,0.00,,,0.00,970.0,meteohub,2013-04-20 16:52:00,
2013-04-20 12:57:00,50.0,47.5,30.10,NNW,327,6.0,12.0,39,0.00,,,0.00,976.0,meteohub,2013-04-20 16:57:00,
2013-04-20 13:02:00,49.6,46.8,30.10,WNW,293,9.0,12.0,38,0.00,,,0.00,979.0,meteohub,2013-04-20 17:02:00,
2013-04-20 13:07:00,50.2,46.6,30.10,NNW,343,7.0,13.0,38,0.00,,,0.00,981.0,meteohub,2013-04-20 17:07:00,
2013-04-20 13:12:00,50.2,47.3,30.10,North,0,8.0,13.0,39,0.00,,,0.00,986.0,meteohub,2013-04-20 17:12:00,
2013-04-20 13:17:00,50.2,47.3,30.10,West,271,3.0,13.0,39,0.00,,,0.00,988.0,meteohub,2013-04-20 17:17:00,
2013-04-20 13:22:00,50.4,47.3,30.09,West,281,5.0,13.0,39,0.00,,,0.00,990.0,meteohub,2013-04-20 17:22:00,
2013-04-20 13:27:00,51.4,47.3,30.09,WNW,296,5.0,12.0,39,0.00,,,0.00,995.0,meteohub,2013-04-20 17:27:00,
2013-04-20 13:32:00,51.4,47.3,30.09,NNW,339,6.0,13.0,39,0.00,,,0.00,991.0,meteohub,2013-04-20 17:32:00,
2013-04-20 13:37:00,51.1,47.3,30.09,North,355,7.0,13.0,39,0.00,,,0.00,993.0,meteohub,2013-04-20 17:37:00,
2013-04-20 13:42:00,51.4,47.3,30.09,NW,315,6.0,13.0,39,0.00,,,0.00,995.0,meteohub,2013-04-20 17:42:00,
2013-04-20 13:47:00,51.4,46.6,30.09,NW,306,3.0,13.0,38,0.00,,,0.00,993.0,meteohub,2013-04-20 17:47:00,
2013-04-20 13:52:00,52.3,46.8,30.09,West,277,8.0,14.0,38,0.00,,,0.00,993.0,meteohub,2013-04-20 17:52:00,
2013-04-20 13:57:00,52.2,46.8,30.09,NNW,341,1.0,14.0,38,0.00,,,0.00,986.0,meteohub,2013-04-20 17:57:00,
2013-04-20 14:02:00,52.7,46.8,30.09,West,261,15.0,15.0,38,0.00,,,0.00,990.0,meteohub,2013-04-20 18:02:00,
2013-04-20 14:07:00,52.7,46.8,30.09,North,355,6.0,17.0,38,0.00,,,0.00,988.0,meteohub,2013-04-20 18:07:00,
2013-04-20 14:12:00,52.9,46.8,30.09,NW,306,0.0,17.0,38,0.00,,,0.00,983.0,meteohub,2013-04-20 18:12:00,
2013-04-20 14:17:00,53.8,46.8,30.09,West,265,9.0,17.0,38,0.00,,,0.00,981.0,meteohub,2013-04-20 18:17:00,
2013-04-20 14:22:00,53.4,46.8,30.09,NW,319,3.0,16.0,38,0.00,,,0.00,976.0,meteohub,2013-04-20 18:22:00,
2013-04-20 14:27:00,53.8,46.8,30.09,NW,311,2.0,16.0,38,0.00,,,0.00,970.0,meteohub,2013-04-20 18:27:00,
2013-04-20 14:32:00,53.4,46.6,30.09,NNW,344,2.0,12.0,38,0.00,,,0.00,965.0,meteohub,2013-04-20 18:32:00,
2013-04-20 14:37:00,53.4,46.4,30.09,NW,315,4.0,15.0,38,0.00,,,0.00,960.0,meteohub,2013-04-20 18:37:00,
2013-04-20 14:42:00,53.4,46.4,30.09,NW,320,6.0,15.0,38,0.00,,,0.00,951.0,meteohub,2013-04-20 18:42:00,
2013-04-20 14:47:00,54.3,46.4,30.09,WSW,248,6.0,12.0,38,0.00,,,0.00,947.0,meteohub,2013-04-20 18:47:00,
2013-04-20 14:52:00,54.9,46.6,30.10,NW,316,1.0,12.0,38,0.00,,,0.00,937.0,meteohub,2013-04-20 18:52:00,
2013-04-20 14:57:00,54.3,46.6,30.09,West,279,5.0,14.0,38,0.00,,,0.00,930.0,meteohub,2013-04-20 18:57:00,
2013-04-20 15:02:00,54.7,46.6,30.09,WNW,298,7.0,14.0,38,0.00,,,0.00,926.0,meteohub,2013-04-20 19:02:00,
2013-04-20 15:07:00,54.7,46.6,30.09,West,265,5.0,14.0,38,0.00,,,0.00,916.0,meteohub,2013-04-20 19:07:00,
2013-04-20 15:12:00,55.0,46.6,30.09,NNW,344,0.0,12.0,38,0.00,,,0.00,907.0,meteohub,2013-04-20 19:12:00,
2013-04-20 15:17:00,55.0,46.6,30.09,WNW,296,4.0,11.0,38,0.00,,,0.00,896.0,meteohub,2013-04-20 19:17:00,
2013-04-20 15:22:00,56.1,46.6,30.09,NW,306,11.0,11.0,38,0.00,,,0.00,889.0,meteohub,2013-04-20 19:22:00,
2013-04-20 15:27:00,55.2,46.6,30.09,WNW,282,5.0,13.0,38,0.00,,,0.00,879.0,meteohub,2013-04-20 19:27:00,
2013-04-20 15:32:00,55.0,46.6,30.09,NW,309,8.0,13.0,38,0.00,,,0.00,870.0,meteohub,2013-04-20 19:32:00,
2013-04-20 15:37:00,55.0,46.6,30.09,North,0,2.0,13.0,38,0.00,,,0.00,861.0,meteohub,2013-04-20 19:37:00,
2013-04-20 15:42:00,55.2,46.6,30.09,WNW,283,4.0,13.0,38,0.00,,,0.00,849.0,meteohub,2013-04-20 19:42:00,
2013-04-20 15:47:00,55.6,46.8,30.09,North,5,8.0,12.0,38,0.00,,,0.00,840.0,meteohub,2013-04-20 19:47:00,
2013-04-20 15:52:00,54.9,46.8,30.09,WSW,255,2.0,11.0,38,0.00,,,0.00,828.0,meteohub,2013-04-20 19:52:00,
2013-04-20 15:57:00,55.8,46.8,30.09,SW,234,2.0,11.0,38,0.00,,,0.00,817.0,meteohub,2013-04-20 19:57:00,
2013-04-20 16:02:00,55.8,46.8,30.09,WSW,253,5.0,11.0,38,0.00,,,0.00,805.0,meteohub,2013-04-20 20:02:00,
2013-04-20 16:07:00,55.0,46.8,30.09,West,276,7.0,10.0,38,0.00,,,0.00,793.0,meteohub,2013-04-20 20:07:00,
2013-04-20 16:12:00,56.1,46.8,30.09,WNW,300,6.0,12.0,38,0.00,,,0.00,782.0,meteohub,2013-04-20 20:12:00,
2013-04-20 16:17:00,55.8,46.8,30.09,NW,320,3.0,13.0,38,0.00,,,0.00,770.0,meteohub,2013-04-20 20:17:00,
2013-04-20 16:22:00,55.8,46.8,30.09,NW,326,4.0,13.0,38,0.00,,,0.00,756.0,meteohub,2013-04-20 20:22:00,
2013-04-20 16:27:00,56.1,46.8,30.08,NW,320,10.0,13.0,38,0.00,,,0.00,742.0,meteohub,2013-04-20 20:27:00,
2013-04-20 16:32:00,56.1,46.8,30.09,WNW,284,6.0,13.0,38,0.00,,,0.00,726.0,meteohub,2013-04-20 20:32:00,
2013-04-20 16:37:00,56.1,46.8,30.09,WNW,292,8.0,13.0,38,0.00,,,0.00,712.0,meteohub,2013-04-20 20:37:00,
2013-04-20 16:42:00,55.9,46.8,30.09,NW,306,9.0,14.0,38,0.00,,,0.00,698.0,meteohub,2013-04-20 20:42:00,
2013-04-20 16:47:00,55.9,46.8,30.09,West,273,7.0,14.0,38,0.00,,,0.00,684.0,meteohub,2013-04-20 20:47:00,
2013-04-20 16:52:00,56.1,46.8,30.09,West,268,5.0,14.0,38,0.00,,,0.00,668.0,meteohub,2013-04-20 20:52:00,
2013-04-20 16:57:00,56.1,46.8,30.09,North,10,7.0,13.0,38,0.00,,,0.00,650.0,meteohub,2013-04-20 20:57:00,
2013-04-20 17:02:00,56.1,46.8,30.09,North,0,2.0,14.0,38,0.00,,,0.00,631.0,meteohub,2013-04-20 21:02:00,
2013-04-20 17:07:00,56.5,46.8,30.09,NW,311,9.0,14.0,38,0.00,,,0.00,613.0,meteohub,2013-04-20 21:07:00,
2013-04-20 17:12:00,56.1,45.9,30.09,West,277,9.0,14.0,37,0.00,,,0.00,596.0,meteohub,2013-04-20 21:12:00,
2013-04-20 17:17:00,55.9,46.6,30.09,North,5,7.0,14.0,38,0.00,,,0.00,580.0,meteohub,2013-04-20 21:17:00,
2013-04-20 17:22:00,55.9,46.4,30.09,West,269,10.0,15.0,38,0.00,,,0.00,563.0,meteohub,2013-04-20 21:22:00,
2013-04-20 17:27:00,55.9,46.4,30.09,North,0,2.0,15.0,38,0.00,,,0.00,545.0,meteohub,2013-04-20 21:27:00,
2013-04-20 17:32:00,55.9,46.4,30.09,NW,313,6.0,15.0,38,0.00,,,0.00,527.0,meteohub,2013-04-20 21:32:00,
2013-04-20 17:37:00,56.5,46.4,30.09,NW,306,7.0,14.0,38,0.00,,,0.00,510.0,meteohub,2013-04-20 21:37:00,
2013-04-20 17:42:00,56.1,46.6,30.09,West,269,1.0,11.0,38,0.00,,,0.00,490.0,meteohub,2013-04-20 21:42:00,
2013-04-20 17:47:00,56.1,46.6,30.09,WNW,291,5.0,9.0,38,0.00,,,0.00,473.0,meteohub,2013-04-20 21:47:00,
2013-04-20 17:52:00,55.9,46.6,30.09,West,276,7.0,10.0,38,0.00,,,0.00,455.0,meteohub,2013-04-20 21:52:00,
2013-04-20 17:57:00,55.9,46.6,30.10,WSW,257,5.0,10.0,38,0.00,,,0.00,439.0,meteohub,2013-04-20 21:57:00,
2013-04-20 18:02:00,55.9,46.6,30.10,West,281,8.0,10.0,38,0.00,,,0.00,420.0,meteohub,2013-04-20 22:02:00,
2013-04-20 18:07:00,55.8,46.6,30.10,WSW,238,4.0,11.0,38,0.00,,,0.00,399.0,meteohub,2013-04-20 22:07:00,
2013-04-20 18:12:00,55.8,46.6,30.10,WNW,300,4.0,11.0,38,0.00,,,0.00,380.0,meteohub,2013-04-20 22:12:00,
2013-04-20 18:17:00,55.8,46.6,30.10,WNW,297,8.0,11.0,38,0.00,,,0.00,359.0,meteohub,2013-04-20 22:17:00,
2013-04-20 18:22:00,55.2,46.6,30.11,West,263,6.0,10.0,38,0.00,,,0.00,339.0,meteohub,2013-04-20 22:22:00,
2013-04-20 18:27:00,54.7,46.6,30.11,WNW,282,2.0,12.0,38,0.00,,,0.00,323.0,meteohub,2013-04-20 22:27:00,
2013-04-20 18:32:00,54.5,46.6,30.11,West,261,5.0,12.0,38,0.00,,,0.00,304.0,meteohub,2013-04-20 22:32:00,
2013-04-20 18:37:00,54.1,46.6,30.12,WSW,251,5.0,12.0,38,0.00,,,0.00,283.0,meteohub,2013-04-20 22:37:00,
2013-04-20 18:42:00,54.1,46.6,30.12,WSW,252,5.0,12.0,38,0.00,,,0.00,264.0,meteohub,2013-04-20 22:42:00,
2013-04-20 18:47:00,54.0,46.6,30.12,West,269,6.0,13.0,38,0.00,,,0.00,244.0,meteohub,2013-04-20 22:47:00,
2013-04-20 18:52:00,53.4,45.9,30.12,SW,223,4.0,13.0,37,0.00,,,0.00,221.0,meteohub,2013-04-20 22:52:00,
2013-04-20 18:57:00,53.2,45.9,30.12,West,273,5.0,13.0,37,0.00,,,0.00,200.0,meteohub,2013-04-20 22:57:00,
2013-04-20 19:02:00,52.9,45.9,30.12,WSW,254,6.0,9.0,37,0.00,,,0.00,181.0,meteohub,2013-04-20 23:02:00,
2013-04-20 19:07:00,52.9,45.9,30.12,South,180,1.0,9.0,37,0.00,,,0.00,158.0,meteohub,2013-04-20 23:07:00,
2013-04-20 19:12:00,52.5,45.9,30.13,SSE,157,1.0,9.0,37,0.00,,,0.00,137.0,meteohub,2013-04-20 23:12:00,
2013-04-20 19:17:00,52.2,45.9,30.13,WSW,248,0.0,8.0,37,0.00,,,0.00,116.0,meteohub,2013-04-20 23:17:00,
2013-04-20 19:22:00,52.0,45.9,30.13,West,263,3.0,6.0,37,0.00,,,0.00,97.0,meteohub,2013-04-20 23:22:00,
2013-04-20 19:27:00,51.6,45.9,30.13,SSE,161,4.0,6.0,37,0.00,,,0.00,77.0,meteohub,2013-04-20 23:27:00,
2013-04-20 19:32:00,51.3,45.9,30.13,SSW,196,3.0,6.0,37,0.00,,,0.00,62.0,meteohub,2013-04-20 23:32:00,
2013-04-20 19:37:00,50.9,45.9,30.13,WNW,292,5.0,6.0,37,0.00,,,0.00,49.0,meteohub,2013-04-20 23:37:00,
2013-04-20 19:42:00,50.5,45.9,30.13,West,269,2.0,6.0,37,0.00,,,0.00,33.0,meteohub,2013-04-20 23:42:00,
2013-04-20 19:47:00,50.2,45.9,30.14,WNW,296,0.0,6.0,37,0.00,,,0.00,19.0,meteohub,2013-04-20 23:47:00,
2013-04-20 19:52:00,49.8,45.9,30.14,SSW,208,1.0,6.0,37,0.00,,,0.00,14.0,meteohub,2013-04-20 23:52:00,
2013-04-20 19:57:00,49.5,45.9,30.15,South,189,4.0,4.0,37,0.00,,,0.00,12.0,meteohub,2013-04-20 23:57:00,
2013-04-20 20:02:00,49.1,45.9,30.15,SW,223,0.0,7.0,37,0.00,,,0.00,9.0,meteohub,2013-04-21 00:02:00,
2013-04-20 20:07:00,48.7,45.9,30.15,South,184,1.0,7.0,37,0.00,,,0.00,5.0,meteohub,2013-04-21 00:07:00,
2013-04-20 20:12:00,48.4,45.9,30.16,South,185,0.0,7.0,37,0.00,,,0.00,0.0,meteohub,2013-04-21 00:12:00,
2013-04-20 20:17:00,47.5,45.9,30.16,South,185,0.0,4.0,37,0.00,,,0.00,0.0,meteohub,2013-04-21 00:17:00,
2013-04-20 20:22:00,47.3,45.9,30.16,South,185,0.0,2.0,37,0.00,,,0.00,0.0,meteohub,2013-04-21 00:22:00,
2013-04-20 20:27:00,46.9,45.9,30.17,South,185,0.0,2.0,37,0.00,,,0.00,0.0,meteohub,2013-04-21 00:27:00,
2013-04-20 20:32:00,46.6,45.9,30.17,ESE,122,3.0,3.0,37,0.00,,,0.00,0.0,meteohub,2013-04-21 00:32:00,
2013-04-20 20:37:00,46.2,45.9,30.18,East,99,1.0,7.0,37,0.00,,,0.00,0.0,meteohub,2013-04-21 00:37:00,
2013-04-20 20:42:00,45.9,45.9,30.18,East,99,0.0,7.0,37,0.00,,,0.00,0.0,meteohub,2013-04-21 00:42:00,
2013-04-20 20:47:00,45.9,45.9,30.18,NE,48,0.0,4.0,37,0.00,,,0.00,0.0,meteohub,2013-04-21 00:47:00,
2013-04-20 20:52:00,45.9,45.9,30.19,NNW,336,0.0,3.0,37,0.00,,,0.00,0.0,meteohub,2013-04-21 00:52:00,
2013-04-20 20:57:00,46.0,45.9,30.18,SE,127,0.0,4.0,37,0.00,,,0.00,0.0,meteohub,2013-04-21 00:57:00,
2013-04-20 21:02:00,45.3,45.9,30.19,SE,127,1.0,4.0,37,0.00,,,0.00,0.0,meteohub,2013-04-21 01:02:00,
2013-04-20 21:07:00,45.1,45.9,30.19,ENE,63,0.0,4.0,37,0.00,,,0.00,0.0,meteohub,2013-04-21 01:07:00,
2013-04-20 21:12:00,45.0,45.9,30.19,ENE,63,0.0,2.0,37,0.00,,,0.00,0.0,meteohub,2013-04-21 01:12:00,
2013-04-20 21:17:00,44.8,45.9,30.20,ENE,63,0.0,2.0,37,0.00,,,0.00,0.0,meteohub,2013-04-21 01:17:00,
2013-04-20 21:22:00,44.6,45.9,30.20,ENE,65,0.0,2.0,37,0.00,,,0.00,0.0,meteohub,2013-04-21 01:22:00,
2013-04-20 21:27:00,44.6,45.9,30.20,ENE,65,0.0,2.0,37,0.00,,,0.00,0.0,meteohub,2013-04-21 01:27:00,
2013-04-20 21:32:00,44.2,45.9,30.21,ENE,65,0.0,2.0,37,0.00,,,0.00,0.0,meteohub,2013-04-21 01:32:00,
2013-04-20 21:37:00,43.9,45.9,30.21,ENE,64,1.0,2.0,37,0.00,,,0.00,0.0,meteohub,2013-04-21 01:37:00,
2013-04-20 21:42:00,43.5,45.9,30.21,ENE,64,0.0,2.0,37,0.00,,,0.00,0.0,meteohub,2013-04-21 01:42:00,
2013-04-20 21:47:00,43.3,45.9,30.22,ENE,64,0.0,2.0,37,0.00,,,0.00,0.0,meteohub,2013-04-21 01:47:00,
2013-04-20 21:52:00,43.3,45.9,30.22,ENE,64,0.0,2.0,37,0.00,,,0.00,0.0,meteohub,2013-04-21 01:52:00,
2013-04-20 21:57:00,42.6,45.9,30.22,ENE,64,0.0,0.0,37,0.00,,,0.00,0.0,meteohub,2013-04-21 01:57:00,
2013-04-20 22:02:00,42.1,45.9,30.22,ENE,64,0.0,0.0,37,0.00,,,0.00,0.0,meteohub,2013-04-21 02:02:00,
2013-04-20 22:07:00,41.5,45.7,30.22,ENE,64,0.0,0.0,37,0.00,,,0.00,0.0,meteohub,2013-04-21 02:07:00,
2013-04-20 22:12:00,41.4,45.7,30.22,ENE,64,0.0,0.0,37,0.00,,,0.00,0.0,meteohub,2013-04-21 02:12:00,
2013-04-20 22:17:00,41.2,45.7,30.22,ENE,64,0.0,0.0,37,0.00,,,0.00,0.0,meteohub,2013-04-21 02:17:00,
2013-04-20 22:22:00,41.0,45.7,30.23,ENE,64,0.0,1.0,37,0.00,,,0.00,0.0,meteohub,2013-04-21 02:22:00,
2013-04-20 22:27:00,40.6,45.7,30.23,ESE,114,0.0,2.0,37,0.00,,,0.00,0.0,meteohub,2013-04-21 02:27:00,
2013-04-20 22:32:00,40.6,45.7,30.23,ESE,114,0.0,2.0,37,0.00,,,0.00,0.0,meteohub,2013-04-21 02:32:00,
2013-04-20 22:37:00,40.5,45.7,30.23,ESE,114,0.0,2.0,37,0.00,,,0.00,0.0,meteohub,2013-04-21 02:37:00,
2013-04-20 22:42:00,40.5,45.7,30.23,ESE,114,0.0,2.0,37,0.00,,,0.00,0.0,meteohub,2013-04-21 02:42:00,
2013-04-20 22:47:00,40.5,45.7,30.23,ESE,114,0.0,0.0,37,0.00,,,0.00,0.0,meteohub,2013-04-21 02:47:00,
2013-04-20 22:52:00,40.6,45.7,30.23,ESE,114,0.0,0.0,37,0.00,,,0.00,0.0,meteohub,2013-04-21 02:52:00,
2013-04-20 22:57:00,40.6,45.7,30.23,ESE,114,0.0,0.0,37,0.00,,,0.00,0.0,meteohub,2013-04-21 02:57:00,
2013-04-20 23:02:00,40.6,45.7,30.23,ESE,114,0.0,0.0,37,0.00,,,0.00,0.0,meteohub,2013-04-21 03:02:00,
2013-04-20 23:07:00,40.6,45.7,30.23,ESE,114,0.0,0.0,37,0.00,,,0.00,0.0,meteohub,2013-04-21 03:07:00,
2013-04-20 23:12:00,40.5,45.7,30.23,ESE,114,0.0,0.0,37,0.00,,,0.00,0.0,meteohub,2013-04-21 03:12:00,
2013-04-20 23:17:00,40.3,45.7,30.23,ESE,114,0.0,0.0,37,0.00,,,0.00,0.0,meteohub,2013-04-21 03:17:00,
2013-04-20 23:22:00,39.9,45.7,30.23,ESE,114,0.0,0.0,37,0.00,,,0.00,0.0,meteohub,2013-04-21 03:22:00,
2013-04-20 23:27:00,39.6,45.7,30.23,ESE,114,0.0,0.0,37,0.00,,,0.00,0.0,meteohub,2013-04-21 03:27:00,
2013-04-20 23:32:00,39.2,45.7,30.23,ESE,114,0.0,0.0,37,0.00,,,0.00,0.0,meteohub,2013-04-21 03:32:00,
2013-04-20 23:37:00,38.8,45.7,30.23,ESE,114,0.0,0.0,37,0.00,,,0.00,0.0,meteohub,2013-04-21 03:37:00,
2013-04-20 23:42:00,38.3,45.7,30.24,ESE,114,0.0,0.0,37,0.00,,,0.00,0.0,meteohub,2013-04-21 03:42:00,
2013-04-20 23:47:00,37.9,45.7,30.24,ESE,114,0.0,0.0,37,0.00,,,0.00,0.0,meteohub,2013-04-21 03:47:00,
2013-04-20 23:52:00,37.8,45.7,30.23,ESE,114,0.0,0.0,37,0.00,,,0.00,0.0,meteohub,2013-04-21 03:52:00,
2013-04-20 23:57:00,37.6,45.7,30.23,ESE,114,0.0,0.0,37,0.00,,,0.00,0.0,meteohub,2013-04-21 03:57:00,